UAE1012 OERK-OOMS

Flight info

Callsign UAE1012
Flight time 1h 43m
Altitude 35000
Route DCT RESAL T533 RAPMA DCT KUVSO DCT KATIT DCT MIDGU M717 PUTSO N685 LAKLU G216 MCT DCT
Aircraft B77W/H-SDE1E2E3FGHIJ2J3J4J5M1RWXY/LB1D1

Departure

Time 2026-04-28 10:05
Airport King Khalid International Airport (OERK)

Arrival

Time 2026-04-28 11:48
Airport Muscat International Airport (OOMS)
Time Latitude Longitude Altitude Speed Heading
2026-04-28 09:41 24.94293 46.71312 2048 ft 0 kts 239°
2026-04-28 09:54 24.94298 46.71319 2052 ft 4 kts 243°
2026-04-28 09:54 24.94307 46.71344 2053 ft 4 kts 259°
2026-04-28 09:54 24.94310 46.71371 2048 ft 3 kts 260°
2026-04-28 09:54 24.94314 46.71389 2050 ft 4 kts 223°
2026-04-28 09:55 24.94329 46.71400 2050 ft 3 kts 197°
2026-04-28 09:55 24.94346 46.71402 2048 ft 4 kts 159°
2026-04-28 09:55 24.94365 46.71389 2048 ft 3 kts 143°
2026-04-28 09:55 24.94376 46.71381 2048 ft 4 kts 149°
2026-04-28 09:57 24.94374 46.71382 2051 ft 0 kts 149°
2026-04-28 09:58 24.94372 46.71383 2052 ft 2 kts 149°
2026-04-28 09:58 24.94363 46.71389 2048 ft 0 kts 149°
2026-04-28 10:01 24.94357 46.71393 2050 ft 4 kts 149°
2026-04-28 10:01 24.94301 46.71429 2052 ft 15 kts 149°
2026-04-28 10:01 24.94216 46.71525 2053 ft 18 kts 89°
2026-04-28 10:01 24.94232 46.71579 2055 ft 5 kts 62°
2026-04-28 10:02 24.94265 46.71649 2052 ft 15 kts 62°
2026-04-28 10:02 24.94334 46.71784 2052 ft 25 kts 60°
2026-04-28 10:02 24.94385 46.71923 2053 ft 13 kts 105°
2026-04-28 10:02 24.94314 46.72010 2053 ft 18 kts 122°
2026-04-28 10:03 24.94308 46.72056 2051 ft 8 kts 80°
2026-04-28 10:03 24.94349 46.72148 2051 ft 20 kts 61°
2026-04-28 10:03 24.94489 46.72216 2042 ft 20 kts 345°
2026-04-28 10:03 24.94528 46.72196 2043 ft 0 kts 330°
2026-04-28 10:04 24.94532 46.72193 2045 ft 6 kts 330°
2026-04-28 10:04 24.94684 46.72097 2048 ft 52 kts 329°
2026-04-28 10:04 24.95227 46.71755 2046 ft 125 kts 330°
2026-04-28 10:04 24.96158 46.71176 2098 ft 173 kts 329°
2026-04-28 10:05 24.97231 46.70456 2469 ft 190 kts 329°
2026-04-28 10:05 24.98384 46.69694 3046 ft 192 kts 326°
2026-04-28 10:05 24.99295 46.68706 3701 ft 186 kts 288°
2026-04-28 10:05 24.99281 46.67308 4183 ft 192 kts 243°
2026-04-28 10:06 24.98286 46.66288 4560 ft 210 kts 201°
2026-04-28 10:06 24.96773 46.66294 4972 ft 236 kts 160°
2026-04-28 10:06 24.95379 46.67391 5419 ft 257 kts 138°
2026-04-28 10:06 24.94089 46.68827 6103 ft 266 kts 139°
2026-04-28 10:07 24.92724 46.70205 6981 ft 268 kts 142°
2026-04-28 10:07 24.91239 46.71475 7738 ft 272 kts 148°
2026-04-28 10:07 24.89646 46.72628 8507 ft 276 kts 153°
2026-04-28 10:07 24.87967 46.73690 9309 ft 279 kts 156°
2026-04-28 10:08 24.86234 46.74675 10105 ft 281 kts 158°
2026-04-28 10:08 24.84454 46.75609 10789 ft 285 kts 160°
2026-04-28 10:08 24.82629 46.76512 11488 ft 289 kts 161°
2026-04-28 10:08 24.80749 46.77402 12036 ft 299 kts 162°
2026-04-28 10:09 24.78770 46.78306 12378 ft 316 kts 162°
2026-04-28 10:09 24.76701 46.79231 12640 ft 334 kts 162°
2026-04-28 10:09 24.74485 46.80209 12918 ft 351 kts 162°
2026-04-28 10:09 24.72167 46.81224 13214 ft 366 kts 162°
2026-04-28 10:10 24.69751 46.82277 13503 ft 380 kts 162°
2026-04-28 10:10 24.67261 46.83359 13900 ft 388 kts 162°
2026-04-28 10:10 24.64725 46.84460 14307 ft 395 kts 162°
2026-04-28 10:10 24.62150 46.85575 14735 ft 401 kts 162°
2026-04-28 10:11 24.59536 46.86706 15159 ft 406 kts 162°
2026-04-28 10:11 24.56890 46.87847 15574 ft 411 kts 162°
2026-04-28 10:11 24.54217 46.89000 16003 ft 415 kts 162°
2026-04-28 10:11 24.51511 46.90165 16425 ft 419 kts 162°
2026-04-28 10:12 24.48785 46.91341 16831 ft 423 kts 162°
2026-04-28 10:12 24.46037 46.92526 17242 ft 426 kts 162°
2026-04-28 10:12 24.43268 46.93718 17628 ft 429 kts 163°
2026-04-28 10:12 24.40474 46.94920 17995 ft 432 kts 163°
2026-04-28 10:13 24.37656 46.96132 18309 ft 435 kts 163°
2026-04-28 10:13 24.34830 46.97346 18617 ft 438 kts 163°
2026-04-28 10:13 24.32023 46.98552 18943 ft 440 kts 163°
2026-04-28 10:13 24.29168 46.99778 19258 ft 441 kts 163°
2026-04-28 10:14 24.26310 47.01007 19558 ft 443 kts 163°
2026-04-28 10:14 24.23430 47.02243 19844 ft 445 kts 163°
2026-04-28 10:14 24.20545 47.03481 20127 ft 446 kts 163°
2026-04-28 10:14 24.17646 47.04724 20414 ft 447 kts 163°
2026-04-28 10:15 24.14741 47.05968 20696 ft 447 kts 163°
2026-04-28 10:15 24.11996 47.07562 20980 ft 453 kts 148°
2026-04-28 10:15 24.09721 47.10009 21254 ft 466 kts 131°
2026-04-28 10:15 24.08022 47.13054 21535 ft 467 kts 123°
2026-04-28 10:16 24.06420 47.16142 21816 ft 467 kts 125°
2026-04-28 10:16 24.04732 47.19185 22093 ft 468 kts 126°
2026-04-28 10:16 24.03001 47.22206 22409 ft 468 kts 127°
2026-04-28 10:16 24.01260 47.25213 22718 ft 468 kts 127°
2026-04-28 10:17 23.99515 47.28222 23019 ft 469 kts 127°
2026-04-28 10:17 23.97793 47.31201 23316 ft 469 kts 127°
2026-04-28 10:17 23.96053 47.34219 23585 ft 469 kts 127°
2026-04-28 10:17 23.94319 47.37238 24042 ft 462 kts 127°
2026-04-28 10:18 23.92635 47.40179 24694 ft 451 kts 127°
2026-04-28 10:18 23.90988 47.43056 25324 ft 440 kts 127°
2026-04-28 10:18 23.89385 47.45854 25995 ft 429 kts 128°
2026-04-28 10:18 23.87818 47.48586 26668 ft 418 kts 128°
2026-04-28 10:19 23.86294 47.51242 27327 ft 406 kts 129°
2026-04-28 10:19 23.84815 47.53815 28014 ft 394 kts 129°
2026-04-28 10:19 23.83329 47.56386 27936 ft 405 kts 129°
2026-04-28 10:19 23.81803 47.59012 27915 ft 413 kts 129°
2026-04-28 10:20 23.80249 47.61688 27885 ft 422 kts 129°
2026-04-28 10:20 23.78668 47.64418 27841 ft 430 kts 129°
2026-04-28 10:20 23.77080 47.67163 27830 ft 437 kts 128°
2026-04-28 10:20 23.75448 47.69989 27819 ft 443 kts 128°
2026-04-28 10:21 23.73790 47.72860 27817 ft 450 kts 128°
2026-04-28 10:21 23.72111 47.75766 27811 ft 456 kts 128°
2026-04-28 10:21 23.70407 47.78714 27811 ft 462 kts 128°
2026-04-28 10:21 23.68690 47.81684 27813 ft 467 kts 128°
2026-04-28 10:22 23.66957 47.84683 28177 ft 462 kts 128°
2026-04-28 10:22 23.65264 47.87619 28799 ft 451 kts 128°
2026-04-28 10:22 23.63610 47.90486 29405 ft 441 kts 129°
2026-04-28 10:22 23.61987 47.93291 29825 ft 438 kts 129°
2026-04-28 10:23 23.60312 47.96160 29795 ft 459 kts 129°
2026-04-28 10:23 23.58559 47.99150 29819 ft 478 kts 128°
2026-04-28 10:23 23.56735 48.02267 29805 ft 497 kts 128°
2026-04-28 10:23 23.54857 48.05491 30025 ft 507 kts 128°
2026-04-28 10:24 23.52971 48.08745 30594 ft 508 kts 128°
2026-04-28 10:24 23.51082 48.12008 31158 ft 509 kts 127°
2026-04-28 10:24 23.49189 48.15269 31718 ft 510 kts 127°
2026-04-28 10:24 23.47286 48.18540 32308 ft 509 kts 127°
2026-04-28 10:25 23.45396 48.21783 32903 ft 507 kts 127°
2026-04-28 10:25 23.43508 48.25018 33482 ft 506 kts 127°
2026-04-28 10:25 23.41618 48.28252 34066 ft 504 kts 127°
2026-04-28 10:25 23.39746 48.31475 34587 ft 502 kts 124°
2026-04-28 10:26 23.38273 48.34955 34789 ft 516 kts 109°
2026-04-28 10:26 23.37616 48.38843 34775 ft 530 kts 92°
2026-04-28 10:26 23.37718 48.46859 34783 ft 536 kts 91°
2026-04-28 10:27 23.37464 48.54833 34744 ft 514 kts 93°
2026-04-28 10:27 23.37090 48.62468 34758 ft 500 kts 93°
2026-04-28 10:28 23.36747 48.70002 34756 ft 497 kts 93°
2026-04-28 10:29 23.36331 48.79989 34764 ft 496 kts 92°
2026-04-28 10:29 23.36018 48.87483 34761 ft 496 kts 93°
2026-04-28 10:30 23.35697 48.95006 34764 ft 498 kts 93°
2026-04-28 10:30 23.35372 49.02548 34762 ft 499 kts 93°
2026-04-28 10:31 23.34860 49.10091 34740 ft 499 kts 99°
2026-04-28 10:31 23.33770 49.17501 34749 ft 499 kts 101°
2026-04-28 10:32 23.32590 49.24974 34753 ft 498 kts 101°
2026-04-28 10:32 23.31471 49.32408 34751 ft 497 kts 100°
2026-04-28 10:33 23.30399 49.39777 34756 ft 496 kts 100°
2026-04-28 10:33 23.29330 49.47176 34749 ft 495 kts 99°
2026-04-28 10:34 23.28256 49.54572 34752 ft 494 kts 99°
2026-04-28 10:34 23.27179 49.61948 34751 ft 493 kts 100°
2026-04-28 10:35 23.26097 49.69318 34755 ft 493 kts 100°
2026-04-28 10:35 23.25012 49.76691 34753 ft 493 kts 100°
2026-04-28 10:36 23.23924 49.84054 34756 ft 493 kts 99°
2026-04-28 10:36 23.22840 49.91371 34757 ft 494 kts 99°
2026-04-28 10:37 23.21744 49.98747 34751 ft 494 kts 99°
2026-04-28 10:37 23.20644 50.06120 34752 ft 494 kts 99°
2026-04-28 10:38 23.19540 50.13497 34748 ft 494 kts 99°
2026-04-28 10:38 23.18436 50.20855 34756 ft 493 kts 99°
2026-04-28 10:39 23.17334 50.28172 34749 ft 493 kts 99°
2026-04-28 10:39 23.16224 50.35519 34754 ft 492 kts 99°
2026-04-28 10:40 23.15111 50.42857 34752 ft 492 kts 99°
2026-04-28 10:40 23.13997 50.50181 34749 ft 491 kts 100°
2026-04-28 10:41 23.12879 50.57508 34749 ft 491 kts 99°
2026-04-28 10:41 23.11759 50.64827 34751 ft 491 kts 100°
2026-04-28 10:42 23.10636 50.72142 34752 ft 491 kts 99°
2026-04-28 10:42 23.09510 50.79451 34750 ft 490 kts 99°
2026-04-28 10:43 23.08388 50.86712 34749 ft 490 kts 100°
2026-04-28 10:43 23.07256 50.94016 34751 ft 490 kts 99°
2026-04-28 10:44 23.06120 51.01323 34751 ft 490 kts 99°
2026-04-28 10:44 23.04980 51.08629 34749 ft 490 kts 100°
2026-04-28 10:45 23.03839 51.15923 34746 ft 490 kts 100°
2026-04-28 10:45 23.02693 51.23226 34747 ft 490 kts 99°
2026-04-28 10:46 23.01558 51.30435 34744 ft 489 kts 99°
2026-04-28 10:46 23.00396 51.37794 34758 ft 490 kts 99°
2026-04-28 10:47 22.99239 51.45096 34751 ft 491 kts 99°
2026-04-28 10:47 22.98086 51.52355 34744 ft 491 kts 99°
2026-04-28 10:48 22.96920 51.59671 34745 ft 492 kts 99°
2026-04-28 10:48 22.95752 51.66976 34742 ft 492 kts 99°
2026-04-28 10:49 22.94579 51.74293 34739 ft 491 kts 99°
2026-04-28 10:49 22.93405 51.81595 34742 ft 491 kts 99°
2026-04-28 10:50 22.92229 51.88886 34741 ft 490 kts 99°
2026-04-28 10:50 22.91052 51.96160 34738 ft 489 kts 99°
2026-04-28 10:51 22.89881 52.03378 34737 ft 489 kts 99°
2026-04-28 10:51 22.88692 52.10681 34739 ft 489 kts 99°
2026-04-28 10:52 22.87510 52.17928 34739 ft 488 kts 99°
2026-04-28 10:52 22.86321 52.25190 34689 ft 489 kts 100°
2026-04-28 10:53 22.85132 52.32434 34733 ft 487 kts 100°
2026-04-28 10:53 22.83950 52.39608 34738 ft 486 kts 100°
2026-04-28 10:54 22.82756 52.46843 34740 ft 486 kts 100°
2026-04-28 10:54 22.81673 52.54067 34739 ft 485 kts 97°
2026-04-28 10:55 22.80839 52.61318 34738 ft 485 kts 96°
2026-04-28 10:55 22.80029 52.68526 34738 ft 484 kts 96°
2026-04-28 10:56 22.79175 52.75771 34736 ft 484 kts 97°
2026-04-28 10:56 22.78297 52.83003 34741 ft 484 kts 97°
2026-04-28 10:57 22.77412 52.90225 34738 ft 484 kts 97°
2026-04-28 10:57 22.76525 52.97450 34736 ft 483 kts 97°
2026-04-28 10:58 22.75635 53.04681 34737 ft 483 kts 97°
2026-04-28 10:58 22.74749 53.11858 34753 ft 483 kts 97°
2026-04-28 10:59 22.73854 53.19079 34738 ft 483 kts 97°
2026-04-28 10:59 22.72958 53.26289 34733 ft 483 kts 97°
2026-04-28 11:00 22.72058 53.33496 34748 ft 482 kts 97°
2026-04-28 11:00 22.71155 53.40695 34731 ft 482 kts 97°
2026-04-28 11:01 22.70251 53.47883 34739 ft 481 kts 97°
2026-04-28 11:01 22.69346 53.55057 34736 ft 481 kts 97°
2026-04-28 11:02 22.68436 53.62232 34741 ft 480 kts 97°
2026-04-28 11:02 22.67525 53.69397 34732 ft 480 kts 97°
2026-04-28 11:03 22.66611 53.76559 34786 ft 480 kts 96°
2026-04-28 11:03 22.65692 53.83737 34747 ft 482 kts 96°
2026-04-28 11:04 22.64766 53.90939 34741 ft 483 kts 96°
2026-04-28 11:04 22.63836 53.98153 34743 ft 484 kts 97°
2026-04-28 11:05 22.62900 54.05378 34740 ft 485 kts 97°
2026-04-28 11:05 22.61960 54.12603 34733 ft 484 kts 97°
2026-04-28 11:06 22.61019 54.19820 34743 ft 483 kts 97°
2026-04-28 11:06 22.60083 54.26973 34739 ft 483 kts 97°
2026-04-28 11:07 22.59137 54.34172 34735 ft 482 kts 97°
2026-04-28 11:07 22.58191 54.41354 34735 ft 482 kts 97°
2026-04-28 11:08 22.57241 54.48534 34735 ft 481 kts 97°
2026-04-28 11:08 22.56290 54.55702 34740 ft 481 kts 97°
2026-04-28 11:09 22.55342 54.62820 34744 ft 481 kts 97°
2026-04-28 11:09 22.54384 54.69987 34735 ft 482 kts 97°
2026-04-28 11:10 22.53420 54.77171 34746 ft 481 kts 97°
2026-04-28 11:10 22.52457 54.84333 34739 ft 481 kts 97°
2026-04-28 11:11 22.51489 54.91494 34748 ft 481 kts 97°
2026-04-28 11:11 22.50683 54.97447 34745 ft 481 kts 97°
2026-04-28 11:12 22.49708 55.04621 34756 ft 485 kts 97°
2026-04-28 11:12 22.48719 55.11885 34755 ft 490 kts 97°
2026-04-28 11:13 22.47720 55.19186 34752 ft 490 kts 97°
2026-04-28 11:13 22.46719 55.26476 34746 ft 489 kts 97°
2026-04-28 11:14 22.45761 55.33752 34739 ft 485 kts 91°
2026-04-28 11:14 22.45988 55.37349 34755 ft 477 kts 74°
2026-04-28 11:14 22.47078 55.40688 34752 ft 468 kts 58°
2026-04-28 11:15 22.50528 55.46594 34766 ft 464 kts 51°
2026-04-28 11:15 22.54213 55.52345 34765 ft 467 kts 51°
2026-04-28 11:15 22.56032 55.55256 34780 ft 478 kts 52°
2026-04-28 11:16 22.57898 55.58298 34784 ft 490 kts 52°
2026-04-28 11:16 22.61645 55.64485 34772 ft 493 kts 52°
2026-04-28 11:17 22.65347 55.70587 34758 ft 477 kts 52°
2026-04-28 11:17 22.68995 55.76576 34770 ft 474 kts 52°
2026-04-28 11:18 22.72624 55.82540 34779 ft 474 kts 52°
2026-04-28 11:18 22.76249 55.88513 34779 ft 475 kts 52°
2026-04-28 11:19 22.79881 55.94504 34787 ft 476 kts 52°
2026-04-28 11:19 22.83513 56.00510 34788 ft 476 kts 52°
2026-04-28 11:20 22.87143 56.06528 34791 ft 477 kts 52°
2026-04-28 11:20 22.90750 56.12514 34793 ft 477 kts 53°
2026-04-28 11:21 22.94375 56.18539 34792 ft 477 kts 53°
2026-04-28 11:21 22.97996 56.24562 34802 ft 476 kts 53°
2026-04-28 11:22 23.01622 56.30600 34807 ft 476 kts 53°
2026-04-28 11:22 23.05178 56.36723 34824 ft 485 kts 55°
2026-04-28 11:23 23.08679 56.43033 34807 ft 486 kts 56°
2026-04-28 11:23 23.12170 56.49310 34818 ft 485 kts 55°
2026-04-28 11:24 23.15671 56.55562 34829 ft 483 kts 55°
2026-04-28 11:24 23.19163 56.61802 34835 ft 483 kts 55°
2026-04-28 11:25 23.22703 56.68082 34861 ft 502 kts 55°
2026-04-28 11:25 23.24555 56.71362 34868 ft 513 kts 55°
2026-04-28 11:25 23.26417 56.74670 34832 ft 508 kts 55°
2026-04-28 11:25 23.28241 56.77923 34583 ft 501 kts 55°
2026-04-28 11:26 23.30062 56.81169 33921 ft 503 kts 54°
2026-04-28 11:26 23.31885 56.84414 33154 ft 498 kts 55°
2026-04-28 11:26 23.33656 56.87601 32375 ft 487 kts 57°
2026-04-28 11:26 23.35031 56.90943 31625 ft 481 kts 71°
2026-04-28 11:27 23.35723 56.94473 30914 ft 474 kts 83°
2026-04-28 11:27 23.36081 56.98006 30153 ft 467 kts 82°
2026-04-28 11:27 23.36610 57.01478 29286 ft 461 kts 78°
2026-04-28 11:27 23.37224 57.04836 28421 ft 455 kts 78°
2026-04-28 11:28 23.37857 57.08185 27565 ft 448 kts 78°
2026-04-28 11:28 23.38479 57.11488 26718 ft 442 kts 78°
2026-04-28 11:28 23.39085 57.14733 25918 ft 436 kts 78°
2026-04-28 11:28 23.39681 57.17949 25303 ft 425 kts 78°
2026-04-28 11:29 23.40250 57.21036 25066 ft 407 kts 78°
2026-04-28 11:29 23.40804 57.24045 24721 ft 406 kts 78°
2026-04-28 11:29 23.41369 57.27114 24014 ft 418 kts 78°
2026-04-28 11:29 23.41946 57.30251 23272 ft 426 kts 78°
2026-04-28 11:30 23.42532 57.33445 22405 ft 433 kts 78°
2026-04-28 11:30 23.43719 57.39918 20751 ft 443 kts 78°
2026-04-28 11:30 23.44323 57.43218 19955 ft 446 kts 79°
2026-04-28 11:31 23.44923 57.46508 19221 ft 435 kts 79°
2026-04-28 11:31 23.45510 57.49722 18529 ft 420 kts 79°
2026-04-28 11:31 23.46062 57.52756 17814 ft 407 kts 79°
2026-04-28 11:31 23.46604 57.55737 17046 ft 395 kts 79°
2026-04-28 11:32 23.47130 57.58635 16310 ft 385 kts 79°
2026-04-28 11:32 23.47643 57.61460 15579 ft 376 kts 79°
2026-04-28 11:32 23.48144 57.64224 14867 ft 368 kts 79°
2026-04-28 11:32 23.48634 57.66928 14173 ft 360 kts 78°
2026-04-28 11:33 23.49112 57.69577 13493 ft 354 kts 78°
2026-04-28 11:33 23.49570 57.72149 13138 ft 336 kts 80°
2026-04-28 11:33 23.49734 57.74622 13082 ft 324 kts 91°
2026-04-28 11:33 23.49635 57.77088 13061 ft 326 kts 94°
2026-04-28 11:34 23.49482 57.79556 13054 ft 326 kts 94°
2026-04-28 11:34 23.49336 57.82025 13054 ft 327 kts 93°
2026-04-28 11:34 23.49210 57.84498 13049 ft 327 kts 93°
2026-04-28 11:34 23.49101 57.86991 12884 ft 332 kts 92°
2026-04-28 11:35 23.49003 57.89531 12415 ft 339 kts 92°
2026-04-28 11:35 23.48912 57.92113 11893 ft 341 kts 92°
2026-04-28 11:35 23.48825 57.94705 11446 ft 343 kts 92°
2026-04-28 11:35 23.48741 57.97314 10973 ft 346 kts 92°
2026-04-28 11:36 23.48656 57.99901 10518 ft 348 kts 91°
2026-04-28 11:36 23.48570 58.02546 10043 ft 350 kts 92°
2026-04-28 11:36 23.48486 58.05204 9593 ft 352 kts 91°
2026-04-28 11:36 23.48400 58.07877 9167 ft 351 kts 91°
2026-04-28 11:37 23.48314 58.10497 9014 ft 341 kts 91°
2026-04-28 11:37 23.48230 58.13029 9006 ft 328 kts 91°
2026-04-28 11:37 23.48152 58.15463 8991 ft 315 kts 91°
2026-04-28 11:37 23.48071 58.17844 8999 ft 313 kts 91°
2026-04-28 11:38 23.47991 58.20207 8994 ft 311 kts 91°
2026-04-28 11:38 23.47913 58.22564 9004 ft 313 kts 91°
2026-04-28 11:38 23.47855 58.24943 9005 ft 314 kts 88°
2026-04-28 11:38 23.47990 58.27316 8997 ft 313 kts 84°
2026-04-28 11:39 23.48217 58.29675 8969 ft 313 kts 83°
2026-04-28 11:39 23.48453 58.32055 8605 ft 319 kts 83°
2026-04-28 11:39 23.48680 58.34469 8185 ft 322 kts 83°
2026-04-28 11:39 23.48897 58.36879 7779 ft 324 kts 83°
2026-04-28 11:40 23.49106 58.39333 7336 ft 326 kts 83°
2026-04-28 11:40 23.49310 58.41780 7098 ft 320 kts 84°
2026-04-28 11:40 23.49508 58.44159 7000 ft 309 kts 83°
2026-04-28 11:40 23.49697 58.46466 7001 ft 305 kts 83°
2026-04-28 11:41 23.49888 58.48769 6912 ft 307 kts 83°
2026-04-28 11:41 23.50081 58.51108 6555 ft 313 kts 83°
2026-04-28 11:41 23.50274 58.53489 6168 ft 316 kts 83°
2026-04-28 11:41 23.50696 58.55775 5935 ft 303 kts 63°
2026-04-28 11:42 23.51880 58.57635 5538 ft 299 kts 38°
2026-04-28 11:42 23.53638 58.58793 5054 ft 295 kts 14°
2026-04-28 11:42 23.55641 58.59126 4604 ft 290 kts 353°
2026-04-28 11:42 23.57574 58.58715 4098 ft 276 kts 337°
2026-04-28 11:43 23.59213 58.57748 3628 ft 264 kts 320°
2026-04-28 11:43 23.60577 58.56461 3212 ft 255 kts 315°
2026-04-28 11:43 23.61485 58.54921 3012 ft 235 kts 280°
2026-04-28 11:43 23.61386 58.53245 2992 ft 213 kts 262°
2026-04-28 11:44 23.61188 58.51730 2994 ft 199 kts 265°
2026-04-28 11:44 23.61054 58.50262 2966 ft 192 kts 266°
2026-04-28 11:44 23.60936 58.48820 2992 ft 190 kts 268°
2026-04-28 11:44 23.60821 58.47384 2883 ft 194 kts 267°
2026-04-28 11:45 23.60700 58.45893 2640 ft 201 kts 268°
2026-04-28 11:45 23.60579 58.44348 2402 ft 209 kts 268°
2026-04-28 11:45 23.60453 58.42730 2122 ft 218 kts 268°
2026-04-28 11:45 23.60317 58.41047 1822 ft 227 kts 268°
2026-04-28 11:46 23.60178 58.39316 1531 ft 230 kts 268°
2026-04-28 11:46 23.60042 58.37634 1275 ft 216 kts 268°
2026-04-28 11:46 23.59916 58.36053 1014 ft 204 kts 268°
2026-04-28 11:46 23.59798 58.34585 749 ft 182 kts 267°
2026-04-28 11:47 23.59697 58.33310 568 ft 163 kts 268°
2026-04-28 11:47 23.59575 58.32071 330 ft 165 kts 268°
2026-04-28 11:47 23.59480 58.30887 172 ft 152 kts 270°
2026-04-28 11:47 23.59412 58.29724 41 ft 156 kts 270°
2026-04-28 11:48 23.59349 58.28891 36 ft 79 kts 265°
2026-04-28 11:48 23.59302 58.28340 36 ft 54 kts 264°
2026-04-28 11:48 23.59233 58.28190 36 ft 10 kts 193°
2026-04-28 11:48 23.59164 58.28190 36 ft 8 kts 175°
2026-04-28 11:49 23.59162 58.28190 36 ft 0 kts 175°
2026-04-28 11:50 23.59161 58.28190 36 ft 1 kts 175°
2026-04-28 11:50 23.59124 58.28197 36 ft 12 kts 161°
2026-04-28 11:50 23.59096 58.28323 36 ft 14 kts 86°
2026-04-28 11:50 23.59106 58.28478 36 ft 28 kts 86°
2026-04-28 11:51 23.59125 58.28705 36 ft 18 kts 84°
2026-04-28 11:51 23.59130 58.28756 36 ft 0 kts 84°
2026-04-28 11:51 23.59136 58.28819 36 ft 16 kts 84°
2026-04-28 11:51 23.59151 58.28991 36 ft 27 kts 86°
2026-04-28 11:52 23.59157 58.29104 36 ft 21 kts 86°
2026-04-28 11:52 23.59172 58.29312 36 ft 34 kts 85°
2026-04-28 11:52 23.59193 58.29542 36 ft 3 kts 84°
2026-04-28 11:52 23.59205 58.29622 36 ft 18 kts 68°
2026-04-28 11:53 23.59328 58.29660 36 ft 21 kts 356°
2026-04-28 11:53 23.59400 58.29546 36 ft 21 kts 264°
2026-04-28 11:53 23.59383 58.29339 37 ft 33 kts 265°
2026-04-28 11:53 23.59360 58.29046 35 ft 44 kts 265°
2026-04-28 11:54 23.59358 58.28752 35 ft 31 kts 282°
2026-04-28 11:54 23.59411 58.28594 35 ft 10 kts 295°
2026-04-28 11:54 23.59416 58.28582 35 ft 1 kts 295°
2026-04-28 11:54 23.59423 58.28569 35 ft 3 kts 300°
2026-04-28 11:55 23.59450 58.28542 35 ft 8 kts 321°
2026-04-28 11:55 23.59517 58.28523 36 ft 13 kts 359°
2026-04-28 11:55 23.59585 58.28522 36 ft 17 kts 358°
2026-04-28 11:55 23.59721 58.28508 36 ft 22 kts 354°
2026-04-28 11:56 23.59859 58.28519 36 ft 11 kts 36°
2026-04-28 11:56 23.59884 58.28567 35 ft 1 kts 69°
2026-04-28 11:56 23.59890 58.28599 35 ft 7 kts 84°
2026-04-28 11:56 23.59891 58.28614 35 ft 0 kts 84°